Flag for Russia Weather past 2 weeks in Volgograd, Russia

Now
57 °F

Sunny.


Feels Like: 56 °F
Forecast: 42 / 63 °F
Wind: 6 mph from Southeast

Location: Volgograd Airport

Current Time: Sep 19, 2014 at 10:10:14 AM

Latest Report: Sep 19, 2014 at 9:30 AM


Visibility: 10 mi

Pressure: 30.45 "Hg

Humidity: 31%

Dew point: 27 °F

Location of VolgogradLocation

Historic Weather in Volgograd — Graph

°F

Volgograd temperature yesterday

Maximum temperature yesterday: 61 °F (at 1:30 PM)
Minimum temperature yesterday: 39 °F (at 4:00 AM)
Average temperature yesterday: 51 °F

Past Weeks' High & Low Weather Summary

 TemperatureHumidityPressure
High82 °F (Sep 4, 4:30 PM)100% (Sep 12, 11:00 PM)30.42 "Hg (Sep 12, 11:00 PM)
Low39 °F (Sep 18, 4:00 AM)19% (Sep 4, 4:30 PM)29.92 "Hg (Sep 16, 3:00 PM)
Average63 °F49%30.08 "Hg
* Reported Sep 4 9:00 AM — Sep 19 9:00 AM, Volgograd, Weather by CustomWeather, © 2014

Note: Actual official high and low records may vary slightly from our data, if they occured in-between our weather recording intervals... More about our weather records

Advertising

Volgograd weather history for previous 24 hours

 ConditionsComfort  
Time TempWeatherWind HumidityBarometerVisibility
9:00 AM
Sep 19
55 °FSunny.3 mph36%30.42 "Hg10 mi
8:30 AM52 °FSunny.3 mph47%30.42 "Hg10 mi
8:00 AM48 °FSunny.3 mph58%30.42 "Hg10 mi
7:30 AM45 °FSunny.6 mph66%30.42 "Hg10 mi
7:00 AM43 °FSunny.8 mph71%30.42 "Hg10 mi
6:30 AM39 °FClear.6 mph75%30.42 "Hg10 mi
6:00 AM43 °FClear.8 mph71%30.39 "Hg10 mi
5:30 AM45 °FClear.8 mph66%30.39 "Hg10 mi
5:00 AM43 °FClear.8 mph71%30.39 "Hg10 mi
4:30 AM45 °FClear.6 mph66%30.39 "Hg10 mi
4:00 AM45 °FClear.6 mph66%30.39 "Hg10 mi
3:30 AM43 °FClear.6 mph71%30.39 "Hg10 mi
3:00 AM45 °FClear.6 mph66%30.39 "Hg10 mi
2:30 AM45 °FClear.8 mph66%30.39 "Hg10 mi
2:00 AM46 °FClear.8 mph57%30.39 "Hg10 mi
1:30 AM48 °FClear.8 mph54%30.39 "Hg10 mi
1:00 AM48 °FClear.8 mph54%30.39 "Hg10 mi
12:30 AM48 °FClear.10 mph54%30.39 "Hg10 mi
12:00 AM50 °FClear.8 mph47%30.39 "Hg10 mi
11:30 PM
Sep 18
46 °FClear.6 mph50%30.36 "Hg10 mi
11:00 PM48 °FClear.3 mph46%30.36 "Hg10 mi
10:30 PM50 °FClear.6 mph43%30.36 "Hg10 mi
10:00 PM52 °FClear.6 mph38%30.36 "Hg10 mi
9:30 PM52 °FClear.3 mph38%30.36 "Hg10 mi
9:00 PM54 °FClear.3 mph33%30.36 "Hg10 mi
8:30 PM54 °FClear.3 mph33%30.33 "Hg10 mi
8:00 PM52 °FClear.6 mph38%30.33 "Hg10 mi
7:30 PM54 °FClear.3 mph33%30.33 "Hg10 mi
7:00 PM55 °FSunny.3 mph31%30.33 "Hg10 mi
6:30 PM59 °FSunny.6 mph27%30.33 "Hg10 mi
6:00 PM59 °FPassing clouds.6 mph27%30.33 "HgN/A
5:30 PM61 °FPassing clouds.6 mph25%30.30 "HgN/A
5:00 PM61 °FPassing clouds.6 mph23%30.30 "HgN/A
4:30 PM61 °FPassing clouds.8 mph25%30.30 "HgN/A
4:00 PM61 °FPassing clouds.8 mph25%30.30 "HgN/A
3:30 PM61 °FSunny.6 mph25%30.30 "Hg10 mi
3:00 PM61 °FPassing clouds.8 mph27%30.30 "HgN/A
2:30 PM61 °FSunny.6 mph29%30.33 "Hg10 mi
2:00 PM61 °FSunny.6 mph29%30.33 "Hg10 mi
1:30 PM61 °FSunny.8 mph31%30.33 "Hg10 mi
1:00 PM59 °FSunny.8 mph29%30.33 "Hg10 mi
12:30 PM59 °FSunny.6 mph31%30.33 "Hg10 mi
12:00 PM59 °FSunny.1 mph34%30.33 "Hg10 mi
11:30 AM57 °FPassing clouds.6 mph36%30.33 "HgN/A
11:00 AM57 °FPassing clouds.3 mph39%30.33 "HgN/A
10:30 AM55 °FPassing clouds.3 mph41%30.33 "HgN/A
10:00 AM54 °FPassing clouds.6 mph47%30.33 "HgN/A
Weather by CustomWeather, © 2014

See weather overviewHow to use our weather pages